Flag for U.S.A. Weather past 2 weeks in Provincetown, Massachusetts, U.S.A.

59 °F


Feels Like: 58 °F
Forecast: 51 / 59 °F
Wind: 8 mph from North

Location: Provincetown Weather Reporting Station

Current Time: Oct 6, 2015 at 11:36:51 AM

Latest Report: Oct 6, 2015 at 10:55 AM

Visibility: 10 mi

Pressure: 30.03 "Hg

Humidity: 68%

Dew point: 48 °F

Location of ProvincetownLocation

Historic Weather in Provincetown — Graph


Provincetown temperature yesterday

Maximum temperature yesterday: 63 °F (at 1:15 PM)
Minimum temperature yesterday: 55 °F (at 12:15 AM)
Average temperature yesterday: 57 °F

Past Weeks' High & Low Weather Summary

High79 °F (Sep 29, 1:15 PM)83% (Sep 25, 2:35 AM)30.52 "Hg (Sep 25, 2:35 AM)
Low36 °F (Sep 27, 4:35 AM)49% (Sep 25, 12:15 PM)29.70 "Hg (Sep 30, 3:15 PM)
Average59 °F69%30.25 "Hg
* Reported Sep 21 10:15 AM — Oct 6 10:35 AM, Provincetown, Weather by CustomWeather, © 2015

Note: Actual official high and low records may vary slightly from our data, if they occured in-between our weather recording intervals... More about our weather records


Provincetown weather history for previous 24 hours

Time TempWeatherWind HumidityBarometerVisibility
10:35 AM
Tue, Oct 6
59 °FSunny.9 mph68%30.03 "Hg10 mi
10:15 AM57 °FSunny.10 mph72%30.03 "Hg10 mi
9:55 AM57 °FSunny.10 mph72%30.03 "Hg10 mi
9:35 AM57 °FSunny.8 mph67%30.02 "Hg10 mi
9:15 AM57 °FSunny.8 mph67%30.03 "Hg10 mi
8:55 AM57 °FSunny.7 mph67%30.03 "Hg10 mi
8:35 AM57 °FSunny.8 mph67%30.02 "Hg10 mi
8:15 AM57 °FSunny.9 mph67%30.02 "Hg10 mi
7:55 AM55 °FSunny.9 mph72%30.01 "Hg10 mi
7:35 AM55 °FPassing clouds.8 mph72%30.01 "Hg10 mi
7:15 AM55 °FClear.10 mph72%30.02 "Hg10 mi
6:55 AM54 °FPassing clouds.8 mph77%30.01 "Hg10 mi
6:35 AM54 °FPassing clouds.9 mph77%30.01 "Hg10 mi
6:15 AM54 °FPassing clouds.7 mph77%30.01 "Hg10 mi
5:55 AM55 °FPassing clouds.9 mph77%30.01 "Hg10 mi
5:35 AM55 °FPassing clouds.10 mph77%30.02 "Hg10 mi
5:15 AM55 °FPassing clouds.10 mph72%30.02 "Hg10 mi
4:55 AM55 °FPassing clouds.9 mph72%30.02 "Hg10 mi
4:35 AM55 °FPassing clouds.10 mph72%30.02 "Hg10 mi
4:15 AM55 °FPassing clouds.12 mph72%30.01 "Hg10 mi
3:55 AM55 °FClear.12 mph72%30.02 "Hg10 mi
3:35 AM55 °FClear.12 mph72%30.02 "Hg10 mi
3:15 AM55 °FClear.13 mph72%30.02 "Hg10 mi
2:55 AM55 °FClear.13 mph72%30.03 "Hg10 mi
2:35 AM55 °FClear.9 mph72%30.04 "Hg10 mi
2:15 AM55 °FPassing clouds.12 mph72%30.04 "Hg10 mi
1:55 AM55 °FOvercast.12 mph72%30.05 "Hg10 mi
1:35 AM55 °FOvercast.13 mph72%30.05 "Hg10 mi
1:15 AM57 °FOvercast.9 mph67%30.05 "Hg10 mi
12:35 AM55 °FPassing clouds.12 mph72%30.06 "Hg10 mi
12:15 AM55 °FPassing clouds.10 mph77%30.07 "Hg10 mi
11:55 PM
Mon, Oct 5
55 °FPassing clouds.12 mph77%30.07 "Hg10 mi
11:35 PM55 °FPassing clouds.13 mph77%30.08 "Hg10 mi
11:15 PM55 °FPassing clouds.12 mph77%30.08 "Hg10 mi
10:55 PM55 °FPassing clouds.12 mph82%30.08 "Hg10 mi
10:35 PM55 °FPassing clouds.13 mph82%30.09 "Hg10 mi
10:15 PM55 °FPassing clouds.9 mph82%30.09 "Hg10 mi
9:55 PM57 °FPassing clouds.12 mph72%30.10 "Hg10 mi
9:35 PM57 °FClear.12 mph72%30.10 "Hg10 mi
9:15 PM57 °FPassing clouds.10 mph72%30.10 "Hg10 mi
8:55 PM57 °FOvercast.10 mph72%30.10 "Hg10 mi
8:35 PM57 °FOvercast.12 mph72%30.11 "Hg10 mi
8:15 PM57 °FOvercast.12 mph72%30.10 "Hg10 mi
7:55 PM57 °FPassing clouds.12 mph72%30.11 "Hg10 mi
7:35 PM57 °FPassing clouds.10 mph72%30.11 "Hg10 mi
7:15 PM57 °FPartly sunny.13 mph72%30.11 "Hg10 mi
6:55 PM57 °FSunny.15 mph72%30.11 "Hg10 mi
6:35 PM57 °FSunny.13 mph72%30.11 "Hg10 mi
5:15 PM57 °FOvercast.14 mph72%30.11 "Hg10 mi
4:55 PM57 °FOvercast.12 mph72%30.12 "Hg10 mi
4:35 PM57 °FMostly cloudy.12 mph72%30.12 "Hg10 mi
4:15 PM59 °FMostly cloudy.13 mph68%30.13 "Hg10 mi
3:55 PM59 °FMostly cloudy.12 mph68%30.13 "Hg10 mi
3:35 PM61 °FMostly cloudy.10 mph63%30.14 "Hg10 mi
3:15 PM61 °FMore clouds than sun.10 mph63%30.14 "Hg10 mi
2:55 PM61 °FBroken clouds.13 mph68%30.14 "Hg10 mi
2:35 PM61 °FScattered clouds.14 mph63%30.14 "Hg10 mi
2:15 PM61 °FPartly sunny.12 mph63%30.15 "Hg10 mi
1:55 PM61 °FPassing clouds.13 mph68%30.16 "Hg10 mi
1:35 PM61 °FPassing clouds.14 mph63%30.16 "Hg10 mi
1:15 PM63 °FPartly sunny.10 mph59%30.17 "Hg10 mi
12:55 PM61 °FMostly cloudy.10 mph63%30.18 "Hg10 mi
12:35 PM61 °FMore clouds than sun.12 mph63%30.18 "Hg10 mi
12:15 PM61 °FOvercast.13 mph68%30.19 "Hg10 mi
11:55 AM61 °FOvercast.13 mph68%30.19 "Hg10 mi
11:35 AM61 °FMore clouds than sun.14 mph68%30.20 "Hg10 mi
11:15 AM59 °FOvercast.13 mph68%30.20 "Hg10 mi
Weather by CustomWeather, © 2015

See weather overviewHow to use our weather pages